Weather observations for the past three days for
Adak Island, Adak Airport
Imperial (Metric)
Date Time (hdt) Wind (mph) Vis. (mi.) Weather Sky Cond. Temperature (ºF) Relative Humidity Wind Chill (°F) Heat Index (°F) Pressure Precipitation (in)
Air Dwpt 6 hour altimeter (in) sea level (mb) 1 hr 3 hr 6 hr
Max. Min.
21 12:56 S 10 10.00 Overcast OVC015 52 50 93% 29.75 1007.3
21 11:56 S 8 10.00 Overcast BKN012 OVC016 52 50 93% 29.74 1007.1
21 09:56 SW 7 10.00 Overcast OVC010 51.1 48.9 92% 29.73 1006.7
21 08:56 SW 7 10.00 Overcast BKN008 OVC013 50 48.9 50 48.9 96% 48 29.72 1006.4
21 07:56 E 3 10.00 Overcast OVC010 50 48 93% 29.72 1006.2
21 06:56 SW 3 10.00 Overcast BKN016 OVC021 48.9 48 97% 29.71 1005.9
21 05:56 S 13 10.00 Mostly Cloudy FEW019 SCT025 BKN090 50 48 93% 46 29.7 1005.8
21 04:56 S 14 10.00 Overcast SCT016 SCT050 OVC075 50 48 93% 45 29.71 1005.9
21 03:56 S 14 10.00 Overcast OVC014 50 48 93% 45 29.72 1006.3
21 02:56 S 12 3.00 Fog/Mist OVC014 48.9 48 50 48.9 97% 45 29.74 1006.9 0.01
21 01:56 S 13 5.00 Fog/Mist OVC014 48.9 48 97% 44 29.74 1007.1
21 00:56 S 10 5.00 Fog/Mist OVC014 48.9 48 97% 45 29.75 1007.3 0.01
20 23:56 S 10 3.00 Fog/Mist BKN010 OVC014 48.9 48 97% 45 29.75 1007.3
20 22:56 S 10 1.50 Fog/Mist OVC010 48.9 48 97% 45 29.74 1007.1
20 21:56 S 22 9.00 Overcast and Breezy OVC008 48.9 48 97% 42 29.73 1006.6
20 20:56 S 17 2.00 Fog/Mist OVC010 50 48 53.1 50 93% 45 29.72 1006.4
20 19:56 S 16 5.00 Fog/Mist OVC013 50 48.9 96% 45 29.72 1006.2
20 18:56 S 14 3.00 Fog/Mist BKN011 OVC019 51.1 48.9 92% 29.72 1006.3
20 17:56 S 12 6.00 Fog/Mist OVC013 51.1 48.9 92% 29.73 1006.7
20 16:56 S 14 10.00 Overcast BKN015 OVC022 52 48.9 89% 29.72 1006.5
20 15:56 S 14 9.00 Overcast BKN015 OVC023 53.1 50 89% 29.72 1006.4
20 14:56 S 17 6.00 Fog/Mist FEW010 BKN019 OVC024 54 50 57 50 87% 29.72 1006.3
20 13:56 S 17 10.00 Overcast OVC019 55.9 50 81% 29.71 1006.2
20 12:56 S 13 10.00 Overcast OVC020 55 51.1 87% 29.71 1006.2
20 11:56 S 15 10.00 Overcast OVC018 51.1 48 89% 29.71 1006.1
20 10:56 S 9 10.00 Overcast OVC020 51.1 46.9 86% 29.72 1006.2
20 09:56 S 13 10.00 Overcast OVC018 51.1 46.9 86% 29.71 1006.0
20 08:56 S 12 10.00 Overcast OVC018 51.1 46.9 51.1 48.9 86% 29.71 1005.9
20 07:56 S 8 10.00 Overcast OVC015 48.9 46.9 93% 46 29.71 1006.0
20 06:56 SW 8 10.00 Overcast OVC019 48.9 46 90% 46 29.7 1005.8
20 05:56 S 7 10.00 Overcast OVC018 48.9 46 90% 46 29.71 1006.0
20 04:56 S 12 10.00 Overcast OVC015 48.9 46.9 93% 45 29.71 1006.1
20 03:56 S 9 10.00 Overcast OVC013 48.9 46.9 93% 45 29.72 1006.5
20 02:56 S 9 10.00 Overcast BKN010 OVC016 48.9 46.9 55 48.9 93% 45 29.72 1006.4
20 01:56 S 13 G 17 10.00 A Few Clouds FEW013 48.9 46.9 93% 44 29.73 1006.8
20 00:56 S 9 10.00 Fair CLR 48.9 46.9 93% 45 29.74 1007.2
19 23:56 S 9 10.00 Overcast OVC014 50 46.9 89% 47 29.75 1007.3
19 22:56 SW 12 10.00 Mostly Cloudy SCT010 BKN015 51.1 48.9 92% 29.75 1007.5
19 21:56 S 16 10.00 Fair CLR 53.1 51.1 93% 29.73 1006.9
19 20:56 S 8 10.00 Overcast BKN011 OVC017 55 52 55.9 52 90% 29.73 1006.7 0.06
19 19:56 S 9 10.00 Overcast BKN011 OVC018 54 52 93% 29.74 1007.0
19 18:56 SE 8 10.00 Overcast OVC009 53.1 52 96% 29.74 1007.1
19 17:56 SW 6 10.00 Overcast OVC009 54 52 93% 29.75 1007.4 0.06
19 15:56 W 10 7.00 Light Rain OVC007 52 50 93% 29.77 1008.1 0.04
19 14:56 W 9 1.25 Light Rain Fog/Mist OVC007 52 51.1 55 52 97% 29.78 1008.3 0.02
19 13:56 W 12 4.00 Fog/Mist OVC007 52 51.1 97% 29.77 1008.2
19 12:56 S 16 10.00 Overcast OVC009 54 52 93% 29.77 1008.2
19 11:56 S 13 10.00 Overcast OVC013 54 52 93% 29.78 1008.4 0.02
19 10:56 S 16 G 20 10.00 Overcast OVC013 54 52 93% 29.79 1008.8 0.01
19 09:56 S 12 10.00 Light Rain OVC015 55 53.1 93% 29.77 1008.0 0.01
19 08:56 S 12 10.00 Overcast OVC015 54 52 55 54 93% 29.78 1008.6 0.05
19 07:56 S 10 G 18 10.00 Overcast OVC015 55 53.1 93% 29.78 1008.5
19 06:56 S 18 G 24 10.00 Overcast BKN017 OVC039 55 53.1 93% 29.79 1008.7
19 05:56 S 21 G 26 6.00 Fog/Mist and Breezy BKN008 BKN014 OVC040 55 54 96% 29.79 1008.9 0.01 0.05
19 04:56 S 16 4.00 Light Rain Fog/Mist FEW014 OVC031 55 53.1 93% 29.81 1009.3 0.03
19 03:56 SW 13 8.00 Light Rain OVC010 55 53.1 93% 29.83 1010.3 0.01
19 02:56 S 15 6.00 Light Rain Fog/Mist BKN015 BKN032 OVC038 55 53.1 55 53.1 93% 29.86 1011.0 0.03
19 01:56 S 18 10.00 Overcast OVC012 55 53.1 93% 29.87 1011.4
19 00:56 S 17 10.00 Overcast OVC016 55 53.1 93% 29.89 1012.2 0.01
18 23:56 S 18 9.00 Light Rain SCT010 OVC020 55 54 96% 29.9 1012.5 0.02 0.02
18 22:56 S 9 8.00 Overcast BKN010 OVC026 54 53.1 97% 29.91 1013.0
18 21:56 E 5 7.00 Light Rain OVC008 54 53.1 97% 29.92 1013.2
18 20:56 S 7 10.00 Overcast OVC010 54 52 59 53.1 93% 29.94 1013.8
18 19:56 E 6 10.00 Overcast OVC008 53.1 51.1 93% 29.95 1014.1
18 18:56 SE 9 10.00 Light Rain OVC013 54 53.1 97% 29.97 1014.9
18 17:56 SE 12 10.00 Overcast OVC011 54 53.1 97% 29.98 1015.2
18 16:56 SE 12 10.00 Light Rain FEW013 BKN028 OVC039 55.9 54 93% 30 1016.0
18 15:56 S 18 G 24 10.00 Overcast BKN036 OVC046 57.9 55 90% 30.01 1016.1
18 14:56 S 17 10.00 Overcast SCT030 BKN036 OVC048 57 54 57.9 50 90% 30.01 1016.2 0.15
18 13:56 SE 7 10.00 Overcast OVC020 54 52 93% 30.03 1016.8 0.02
Date Time (hdt) Wind (mph) Vis. (mi.) Weather Sky Cond. Air Dwpt Max. Min. Relative Humidity Wind Chill (°F) Heat Index (°F) altimeter (in) sea level (mb) 1 hr 3 hr 6 hr
6 hour
Temperature (ºF) Pressure Precipitation (in)